[[{"header":{"parameterUnit":"m.s-1","parameterCategory":2,"la1":30.2991,"la2":30.254,"lo1":-89.0895,"lo2":-89.0444,"dy":0.0017,"dx":0.0017,"nx":28,"ny":28,"refTime":"2024-04-30T03:00:00:Z","depth":"0","parameterNumber":2,"parameterNumberName":"U-component_of_CURRENTS"},"data":[0,0,0,0,0,0,0,0,0,0,0,0,0,0,0,0,0,0,0,0,0,0,0,0,0,0,0,0,0,0,0,0,0,0,0,0,0,0,0,0,0,0,0,0,0,0,0,0,0,0,0,0,0,0,0,0,0,0,0.3711,0.3713,0,0.3855,0.3856,0.3857,0.3859,0.3857,0.3856,0.3855,0.3832,0.3833,0.3833,0,0,0,0,0,0,0,0,0,0,0,0,0,0.3436,0.3441,0.371,0.3713,0.3715,0.3855,0.3856,0.3858,0.3859,0.3857,0.3856,0.3854,0.3832,0.3833,0.3833,0,0,0,0,0,0,0,0,0,0,0,0,0,0.356,0.3442,0.371,0.3737,0.3741,0.3854,0.3856,0.3858,0.3859,0.3857,0.3855,0.3853,0.3832,0.3833,0.3834,0.388,0,0,0.3837,0.3837,0,0,0,0,0,0,0,0,0.3553,0.357,0.373,0.3735,0.374,0.3841,0.3752,0.3859,0.386,0.3808,0.3855,0.3852,0.3825,0.3826,0.3852,0.3879,0.3878,0.3837,0.3837,0.3838,0.3838,0,0,0,0,0,0,0,0.3545,0.3564,0.3762,0.3733,0.3739,0.3742,0.3756,0.3772,0.3819,0.3813,0.3815,0.384,0.3825,0.3852,0.3852,0.3877,0.3837,0.3837,0.3838,0.3838,0.399,0.3994,0,0,0,0,0,0,0.3541,0.3556,0.3758,0.3767,0.3646,0.3749,0.3765,0.3806,0.3822,0.3826,0.3842,0.384,0.3851,0.385,0.385,0.3949,0.3838,0.3839,0.3839,0.3987,0.3991,0.3995,0,0,0,0,0,0,0.3535,0.3558,0.3752,0.3667,0.3693,0.3756,0.3802,0.381,0.3846,0.3847,0.3846,0.387,0.3849,0.3849,0.3894,0.3945,0.3839,0.384,0.3983,0.3988,0.3993,0.4117,0,0,0,0,0,0,0.3527,0.3556,0.358,0.3668,0.3698,0.3839,0.3805,0.3815,0.3867,0.3866,0.3871,0.3867,0.3848,0.3893,0.3895,0.3945,0.3841,0.3978,0.3985,0.3991,0.4108,0.4126,0.414,0,0,0,0,0,0.3517,0.3567,0.358,0.3605,0.3731,0.3843,0.3859,0.3891,0.387,0.3909,0.3913,0.3867,0.3934,0.3897,0.3898,0.395,0.3975,0.3983,0.3991,0.4101,0.4122,0.414,0,0,0,0,0,0,0.3459,0.3575,0.3591,0.3673,0.3758,0.3845,0.3885,0.3906,0.3944,0.3931,0.3913,0.3912,0.3972,0.3952,0.391,0.4016,0.3947,0.3956,0.4031,0.405,0.4066,0.4047,0.3841,0,0,0,0,0,0.3461,0.3532,0.3635,0.3703,0.3745,0.3815,0.386,0.389,0.3941,0.3956,0.3968,0.3978,0.401,0.4019,0.4042,0.4098,0.4076,0.4133,0.4149,0.4163,0.4152,0.4188,0.4205,0.402,0.402,0.402,0,0,0.346,0.3532,0.3572,0.3696,0.3757,0.3841,0.3837,0.3922,0.3984,0.3946,0.4022,0.4036,0.404,0.4109,0.4133,0.4094,0.4211,0.4173,0.4184,0.4164,0.4197,0.4215,0.4231,0.4025,0.4025,0.4024,0,0,0.3498,0.3558,0.3626,0.3705,0.3812,0.3866,0.3896,0.3997,0.403,0.412,0.4106,0.4156,0.4205,0.4226,0.4237,0.4356,0.4298,0.4364,0.4423,0.446,0.4474,0.4487,0.4501,0.4514,0.4367,0.4367,0.4367,0,0.3483,0.3584,0.3663,0.3748,0.3809,0.388,0.3957,0.4026,0.4127,0.4161,0.4155,0.4256,0.4263,0.4337,0.4383,0.439,0.4387,0.4346,0.4478,0.449,0.45,0.4512,0.4524,0.4374,0.4373,0.4372,0.4372,0,0.3575,0.365,0.3701,0.3828,0.3908,0.399,0.4094,0.4167,0.4212,0.4271,0.4366,0.4399,0.4447,0.4478,0.4466,0.4553,0.4521,0.4497,0.4421,0.4526,0.4532,0.4542,0.4384,0.4381,0.4379,0.4378,0,0,0.3531,0.3723,0.3733,0.3794,0.3947,0.4022,0.4138,0.4256,0.4312,0.4416,0.4489,0.4579,0.4587,0.46,0.4604,0.4641,0.4731,0.4602,0.4601,0.4602,0.4799,0.4674,0.4672,0.4728,0.4731,0.4732,0.4779,0,0.3562,0.3712,0.3803,0.3931,0.4012,0.4113,0.4212,0.4326,0.4409,0.4504,0.4565,0.4636,0.4638,0.4658,0.4708,0.4719,0.4761,0.4719,0.4709,0.4708,0.4572,0.4681,0.4493,0.451,0.4789,0.4791,0.4792,0,0.3594,0.3695,0.3822,0.3976,0.4016,0.4099,0.424,0.434,0.4486,0.455,0.4641,0.4686,0.4776,0.475,0.4836,0.4807,0.4815,0.4821,0.4823,0.4659,0.4601,0.4449,0.4517,0.4475,0.4807,0.4806,0.4804,0,0.3513,0.3689,0.3782,0.3843,0.4039,0.4095,0.4186,0.434,0.4407,0.4565,0.4617,0.4741,0.4777,0.4839,0.4874,0.486,0.4942,0.4921,0.4819,0.481,0.462,0.4589,0.4625,0.498,0.498,0.498,0.4979,0,0.3502,0.3569,0.3746,0.3805,0.3878,0.4042,0.4122,0.4234,0.4382,0.4446,0.4611,0.4666,0.4798,0.4864,0.49,0.4888,0.497,0.4839,0.482,0.466,0.4634,0.456,0.4544,0.4981,0.4981,0.4981,0.498,0,0.3399,0.3529,0.3626,0.3808,0.3845,0.3893,0.4041,0.4101,0.4269,0.4354,0.4402,0.4606,0.4709,0.4823,0.4914,0.488,0.4778,0.4881,0.4674,0.4629,0.4452,0.4449,0.4236,0.4112,0.477,0.4767,0.4765,0,0.3364,0.3411,0.3564,0.359,0.3661,0.3751,0.3801,0.3997,0.4063,0.4292,0.4313,0.4483,0.4557,0.4673,0.4684,0.473,0.468,0.4559,0.4493,0.4424,0.441,0.4254,0.4156,0.4311,0.4305,0.43,0.4297,0,0.326,0.3309,0.3376,0.3433,0.348,0.3539,0.3634,0.3671,0.3895,0.398,0.4103,0.4193,0.4347,0.4327,0.4407,0.4415,0.4348,0.4456,0.4452,0.4103,0.3868,0.3745,0.4301,0.4254,0.4258,0.4261,0.4264,0.4265,0.3122,0.3118,0.3192,0.322,0.3278,0.3303,0.3283,0.3403,0.3464,0.3554,0.3778,0.3841,0.4006,0.4092,0.4078,0.401,0.4012,0.3939,0.396,0.3822,0.363,0.4074,0.3959,0.3962,0.3964,0.3966,0.3967,0,0.2906,0.2933,0.2972,0.2995,0.2984,0.309,0.314,0.3102,0.3081,0.3252,0.3322,0.3469,0.3487,0.365,0.369,0.3574,0.3393,0.3527,0.3316,0.326,0.373,0.364,0.3368,0.3368,0.3368,0.3368,0.3368,0.3368,0.2789,0.2741,0.2772,0.2684,0.2708,0.2632,0.2618,0.26,0.2692,0.2728,0.2823,0.2964,0.3326,0.3492,0.3463,0.3367,0.3175,0.2976,0.3023,0.3449,0.349,0.353,0.3445,0.3137,0.3137,0.239,0.2385,0.2381]},{"header":{"parameterUnit":"m.s-1","parameterCategory":2,"la1":30.2991,"la2":30.254,"lo1":-89.0895,"lo2":-89.0444,"dy":0.0017,"dx":0.0017,"nx":28,"ny":28,"refTime":"2024-04-30T03:00:00:Z","depth":"0","parameterNumber":3,"parameterNumberName":"V-component_of_CURRENTS"},"data":[0,0,0,0,0,0,0,0,0,0,0,0,0,0,0,0,0,0,0,0,0,0,0,0,0,0,0,0,0,0,0,0,0,0,0,0,0,0,0,0,0,0,0,0,0,0,0,0,0,0,0,0,0,0,0,0,0,0,-0.0178,-0.0179,0,-0.0206,-0.0207,-0.0207,-0.0219,-0.0219,-0.0219,-0.0219,-0.0211,-0.021,-0.021,0,0,0,0,0,0,0,0,0,0,0,0,0,-0.0121,-0.0122,-0.0178,-0.0179,-0.0179,-0.0206,-0.0207,-0.0207,-0.0219,-0.0219,-0.0219,-0.0219,-0.0211,-0.021,-0.021,0,0,0,0,0,0,0,0,0,0,0,0,0,-0.0146,-0.0122,-0.0178,-0.0189,-0.019,-0.0206,-0.0207,-0.0207,-0.0219,-0.0219,-0.0219,-0.0219,-0.0211,-0.0211,-0.021,-0.0207,0,0,-0.0209,-0.0209,0,0,0,0,0,0,0,0,-0.0145,-0.0148,-0.0187,-0.0188,-0.019,-0.021,-0.0183,-0.0205,-0.0219,-0.0207,-0.0219,-0.0219,-0.0207,-0.0207,-0.0212,-0.0207,-0.0206,-0.0209,-0.0209,-0.0209,-0.0208,0,0,0,0,0,0,0,-0.0143,-0.0147,-0.0189,-0.0187,-0.0189,-0.0188,-0.0191,-0.0188,-0.0206,-0.0208,-0.021,-0.0214,-0.0208,-0.0212,-0.0212,-0.0206,-0.0209,-0.0209,-0.0208,-0.0208,-0.0208,-0.0208,0,0,0,0,0,0,-0.0142,-0.0146,-0.0188,-0.0189,-0.0168,-0.0189,-0.0193,-0.0203,-0.0206,-0.0208,-0.0214,-0.0214,-0.0213,-0.0212,-0.0212,-0.0212,-0.0209,-0.0208,-0.0208,-0.0207,-0.0208,-0.0208,0,0,0,0,0,0,-0.0141,-0.0146,-0.0187,-0.0168,-0.0174,-0.019,-0.0201,-0.0203,-0.0206,-0.0211,-0.0211,-0.0214,-0.0213,-0.0212,-0.0207,-0.0212,-0.0208,-0.0208,-0.0207,-0.0208,-0.0208,-0.0211,0,0,0,0,0,0,-0.0139,-0.0145,-0.0153,-0.0169,-0.0175,-0.0189,-0.0201,-0.0204,-0.0209,-0.021,-0.0211,-0.0211,-0.0213,-0.0208,-0.0207,-0.0211,-0.0207,-0.0207,-0.0207,-0.0208,-0.021,-0.0211,-0.0211,0,0,0,0,0,-0.0137,-0.0141,-0.0153,-0.0158,-0.0184,-0.0188,-0.0191,-0.0202,-0.0209,-0.0205,-0.0211,-0.0211,-0.021,-0.0208,-0.0207,-0.0211,-0.0207,-0.0207,-0.0208,-0.021,-0.0211,-0.0211,0,0,0,0,0,0,-0.0115,-0.0144,-0.0157,-0.0169,-0.0177,-0.019,-0.0188,-0.02,-0.0202,-0.0201,-0.0209,-0.0208,-0.0208,-0.0207,-0.0205,-0.0213,-0.021,-0.021,-0.0212,-0.0213,-0.0214,-0.0215,-0.0207,0,0,0,0,0,-0.0117,-0.0131,-0.015,-0.0158,-0.016,-0.0175,-0.0179,-0.0186,-0.0192,-0.0194,-0.0198,-0.0203,-0.021,-0.0209,-0.0211,-0.021,-0.0217,-0.0213,-0.0214,-0.0215,-0.0216,-0.0248,-0.0252,-0.021,-0.0209,-0.0209,0,0,-0.0112,-0.0128,-0.0137,-0.0155,-0.0161,-0.0158,-0.0176,-0.0176,-0.0179,-0.0191,-0.0191,-0.0202,-0.021,-0.0214,-0.0214,-0.0212,-0.0226,-0.0215,-0.0216,-0.0216,-0.0249,-0.0253,-0.0257,-0.021,-0.021,-0.021,0,0,-0.0094,-0.012,-0.0117,-0.0123,-0.0131,-0.0143,-0.0142,-0.0154,-0.0163,-0.0165,-0.0182,-0.02,-0.0196,-0.0216,-0.0222,-0.0227,-0.0229,-0.0224,-0.0227,-0.0259,-0.0263,-0.0266,-0.0262,-0.0265,-0.0224,-0.0224,-0.0224,0,-0.008,-0.0088,-0.0114,-0.0106,-0.0108,-0.0134,-0.0122,-0.0136,-0.0148,-0.0158,-0.0161,-0.0194,-0.0201,-0.0226,-0.023,-0.023,-0.0234,-0.0223,-0.026,-0.0264,-0.0268,-0.0262,-0.0266,-0.0224,-0.0224,-0.0224,-0.0224,0,-0.0053,-0.0061,-0.0055,-0.0061,-0.0069,-0.0061,-0.0084,-0.0094,-0.0111,-0.0131,-0.0158,-0.0184,-0.0204,-0.0216,-0.0222,-0.0256,-0.0244,-0.0258,-0.0259,-0.0272,-0.0265,-0.0269,-0.0224,-0.0224,-0.0224,-0.0224,0,0,0.0002,-0.0031,-0.0023,-0.0024,-0.0044,-0.004,-0.0055,-0.0073,-0.0077,-0.0115,-0.0128,-0.0172,-0.0198,-0.0208,-0.0233,-0.0267,-0.0294,-0.0271,-0.0272,-0.0266,-0.0336,-0.0286,-0.0285,-0.0316,-0.0317,-0.0318,-0.0314,0,0.0042,0.0058,0.0026,0.0043,0.005,0.0011,0.0004,-0.0022,-0.005,-0.0068,-0.0132,-0.0142,-0.0191,-0.0193,-0.0246,-0.0274,-0.0306,-0.0292,-0.0324,-0.0324,-0.0279,-0.0289,-0.0259,-0.025,-0.0317,-0.0318,-0.0318,0,0.0095,0.0094,0.0115,0.0091,0.0094,0.0098,0.0081,0.0071,0.002,-0.0001,-0.0058,-0.0097,-0.0155,-0.0188,-0.0276,-0.0262,-0.0301,-0.0333,-0.0334,-0.029,-0.0281,-0.0252,-0.0254,-0.044,-0.0324,-0.0324,-0.0323,0,0.0167,0.016,0.0177,0.0174,0.0147,0.015,0.0138,0.0098,0.0109,0.0049,0.0063,-0.0048,-0.0054,-0.0156,-0.0217,-0.0249,-0.0293,-0.0344,-0.034,-0.0335,-0.0318,-0.031,-0.0505,-0.0412,-0.0413,-0.0413,-0.0413,0,0.0228,0.0247,0.0216,0.0234,0.0269,0.0218,0.025,0.022,0.0198,0.0245,0.0114,0.0149,-0.0045,-0.0088,-0.019,-0.025,-0.0271,-0.0337,-0.0338,-0.0314,-0.0306,-0.0471,-0.0575,-0.0412,-0.0412,-0.0412,-0.0412,0,0.0316,0.0289,0.0317,0.03,0.0308,0.0339,0.0353,0.0381,0.0341,0.0402,0.04,0.0308,0.0259,0.0092,-0.0039,-0.0166,-0.0343,-0.0268,-0.0205,-0.0199,-0.0404,-0.0507,-0.0668,-0.0756,-0.0299,-0.0297,-0.0296,0,0.0362,0.0386,0.0397,0.0435,0.0439,0.0473,0.0514,0.0473,0.0518,0.0543,0.0601,0.0548,0.0572,0.0377,0.0131,-0.0053,-0.0244,-0.0169,-0.0249,-0.041,-0.0527,-0.0611,-0.0682,-0.022,-0.0218,-0.0217,-0.0216,0,0.0464,0.0469,0.0493,0.0569,0.0621,0.0673,0.0727,0.0787,0.0782,0.0854,0.0962,0.0984,0.0785,0.0599,0.03,0.0151,-0.0309,-0.0148,-0.0355,-0.0513,-0.0581,-0.0664,-0.0208,-0.0205,-0.0206,-0.0207,-0.0208,-0.0208,0.0557,0.0597,0.0638,0.0712,0.0779,0.0877,0.0948,0.103,0.115,0.1274,0.1271,0.1361,0.1012,0.061,0.0343,-0.0163,-0.0203,-0.0337,-0.0452,-0.0525,-0.0615,-0.0108,-0.0084,-0.0085,-0.0085,-0.0085,-0.0086,0,0.0667,0.0707,0.0783,0.0866,0.0963,0.0968,0.1099,0.1187,0.1376,0.1521,0.1632,0.1575,0.1147,0.0662,-0.0016,-0.0408,-0.0594,-0.0634,-0.0795,-0.0858,-0.0436,-0.044,-0.0445,-0.0445,-0.0445,-0.0444,-0.0444,-0.0444,0.0729,0.0818,0.0843,0.1013,0.1084,0.1217,0.1302,0.1457,0.1586,0.1812,0.1914,0.1953,0.163,0.0334,-0.0567,-0.0787,-0.1098,-0.1133,-0.131,-0.1073,-0.1056,-0.104,-0.1072,-0.1209,-0.121,-0.1689,-0.1694,-0.1698]}],[{"header":{"parameterUnit":"m.s-1","parameterCategory":2,"la1":30.2991,"la2":30.254,"lo1":-89.0895,"lo2":-89.0444,"dy":0.0017,"dx":0.0017,"nx":28,"ny":28,"refTime":"2024-04-30T03:00:00:Z","depth":"2","parameterNumber":2,"parameterNumberName":"U-component_of_CURRENTS"},"data":[0,0,0,0,0,0,0,0,0,0,0,0,0,0,0,0,0,0,0,0,0,0,0,0,0,0,0,0,0,0,0,0,0,0,0,0,0,0,0,0,0,0,0,0,0,0,0,0,0,0,0,0,0,0,0,0,0,0,0.26,0.2601,0,0.2643,0.2644,0.2644,0.267,0.267,0.267,0.267,0.2712,0.2713,0.2714,0,0,0,0,0,0,0,0,0,0,0,0,0,0.2546,0.2547,0.26,0.2601,0.2601,0.2643,0.2644,0.2644,0.267,0.267,0.267,0.267,0.2711,0.2713,0.2714,0,0,0,0,0,0,0,0,0,0,0,0,0,0.2577,0.2547,0.26,0.2619,0.2621,0.2643,0.2644,0.2645,0.267,0.267,0.267,0.267,0.2711,0.2712,0.2714,0.272,0,0,0.2718,0.2719,0,0,0,0,0,0,0,0,0.2576,0.2579,0.2616,0.2618,0.262,0.2651,0.264,0.267,0.267,0.2652,0.267,0.2671,0.2691,0.2694,0.2702,0.2722,0.2723,0.2719,0.272,0.272,0.2721,0,0,0,0,0,0,0,0.2573,0.2578,0.2617,0.2616,0.2619,0.2627,0.2632,0.2646,0.267,0.2653,0.2655,0.266,0.2692,0.2701,0.2703,0.2724,0.2719,0.272,0.2721,0.2721,0.2877,0.288,0,0,0,0,0,0,0.2568,0.2576,0.2616,0.2619,0.2598,0.2628,0.2633,0.2641,0.267,0.2674,0.266,0.2661,0.2698,0.2702,0.2705,0.28,0.272,0.2722,0.2722,0.2873,0.2877,0.2881,0,0,0,0,0,0,0.2566,0.2571,0.2614,0.2598,0.2604,0.2629,0.2638,0.2642,0.2676,0.2675,0.2679,0.2692,0.2698,0.2703,0.275,0.2799,0.2722,0.2724,0.287,0.2875,0.2879,0.2935,0,0,0,0,0,0,0.2565,0.257,0.2581,0.2598,0.2605,0.2663,0.2638,0.2643,0.2677,0.268,0.2703,0.2706,0.2699,0.2748,0.2752,0.2799,0.2725,0.2865,0.2872,0.2877,0.293,0.2942,0.2952,0,0,0,0,0,0.2563,0.2583,0.2581,0.2587,0.2616,0.2665,0.2671,0.2688,0.2679,0.2715,0.2724,0.2706,0.279,0.2751,0.2755,0.2804,0.2863,0.287,0.2877,0.2924,0.2939,0.2952,0,0,0,0,0,0,0.2563,0.2588,0.2587,0.2612,0.265,0.267,0.27,0.2705,0.274,0.2745,0.2733,0.2738,0.2811,0.2803,0.276,0.2873,0.283,0.2838,0.2865,0.2879,0.289,0.2883,0.2726,0,0,0,0,0,0.2566,0.2597,0.2618,0.2647,0.2663,0.2684,0.2705,0.2723,0.2749,0.2765,0.2775,0.2799,0.2841,0.2853,0.2891,0.2931,0.293,0.2974,0.2985,0.2995,0.2997,0.3037,0.3051,0.2905,0.2905,0.2904,0,0,0.2577,0.2594,0.2612,0.2651,0.2676,0.2708,0.2699,0.2752,0.2777,0.2763,0.2808,0.2846,0.2867,0.293,0.296,0.2925,0.3041,0.3004,0.3011,0.3008,0.3046,0.306,0.3072,0.2909,0.2909,0.2908,0,0,0.2612,0.2629,0.2662,0.2692,0.2738,0.2754,0.2775,0.2812,0.2831,0.2884,0.289,0.2942,0.2996,0.3011,0.3026,0.3118,0.3113,0.3159,0.3188,0.3228,0.3239,0.3249,0.3274,0.3286,0.3146,0.3146,0.3146,0,0.2621,0.2649,0.2684,0.2716,0.2734,0.2775,0.2804,0.2836,0.2886,0.2909,0.2914,0.3024,0.3027,0.3096,0.3131,0.3138,0.3169,0.3125,0.3239,0.3249,0.3258,0.3281,0.3293,0.315,0.315,0.3149,0.3149,0,0.2661,0.2691,0.2718,0.2763,0.2799,0.2842,0.2877,0.2925,0.2954,0.2983,0.3082,0.3108,0.3162,0.3192,0.3183,0.3269,0.3274,0.3258,0.3192,0.3275,0.3295,0.3307,0.3155,0.3154,0.3153,0.3152,0,0,0.2653,0.2727,0.2736,0.2759,0.282,0.2857,0.2911,0.297,0.3005,0.3088,0.3137,0.3223,0.3254,0.3274,0.3291,0.3325,0.34,0.3325,0.3325,0.3328,0.3505,0.3405,0.3407,0.342,0.3422,0.3424,0.3495,0,0.2666,0.2723,0.2756,0.2817,0.2844,0.2895,0.293,0.2999,0.3059,0.3123,0.3192,0.3266,0.3279,0.332,0.336,0.3404,0.3435,0.3383,0.3444,0.3445,0.3327,0.3418,0.3171,0.3206,0.3506,0.3508,0.3509,0,0.2669,0.2711,0.2756,0.2826,0.284,0.2881,0.2954,0.3011,0.3111,0.3157,0.3261,0.3316,0.3405,0.3389,0.3504,0.3486,0.3499,0.3523,0.3526,0.3416,0.3365,0.3174,0.3215,0.3527,0.3526,0.3525,0.3523,0,0.2625,0.2706,0.2738,0.276,0.2843,0.2875,0.2938,0.3029,0.3066,0.3207,0.3255,0.3376,0.345,0.3508,0.3553,0.355,0.3659,0.3641,0.3565,0.3558,0.3346,0.3316,0.3703,0.3703,0.3703,0.3702,0.3702,0,0.2599,0.2626,0.2724,0.2743,0.2778,0.2866,0.2918,0.2997,0.3092,0.3146,0.3283,0.3334,0.3494,0.3563,0.3582,0.3611,0.3678,0.3588,0.3576,0.3361,0.3333,0.3604,0.3591,0.3705,0.3704,0.3704,0.3703,0,0.2515,0.2586,0.2622,0.2719,0.2754,0.2787,0.2889,0.2924,0.3052,0.3128,0.3179,0.3342,0.3459,0.3561,0.3663,0.3644,0.3668,0.3645,0.3379,0.3334,0.3536,0.3527,0.3593,0.3591,0.3588,0.3586,0.3584,0,0.2468,0.2481,0.2581,0.2601,0.264,0.2712,0.2745,0.2882,0.2925,0.3102,0.3121,0.3293,0.3355,0.3483,0.3511,0.3546,0.361,0.3315,0.3245,0.3547,0.353,0.3523,0.3517,0.2999,0.2992,0.2987,0.2983,0,0.2366,0.2401,0.2437,0.2482,0.2526,0.2564,0.2648,0.2662,0.2826,0.2892,0.2984,0.306,0.3226,0.3184,0.3264,0.3237,0.3296,0.321,0.3607,0.3057,0.299,0.2971,0.2984,0.2937,0.2942,0.2945,0.2948,0.2949,0.2279,0.2266,0.2325,0.2346,0.239,0.2408,0.2406,0.2492,0.2538,0.263,0.2768,0.282,0.2925,0.2931,0.2852,0.2828,0.3056,0.2938,0.2953,0.2974,0.2885,0.2816,0.2714,0.2717,0.272,0.2723,0.2725,0,0.2166,0.2175,0.2189,0.2216,0.2199,0.2279,0.2316,0.2295,0.2305,0.2435,0.2503,0.2363,0.2364,0.2454,0.2361,0.2381,0.2349,0.2277,0.222,0.227,0.2313,0.2187,0.1833,0.183,0.1827,0.1824,0,0,0.2116,0.2085,0.2087,0.2027,0.2041,0.1997,0.1994,0.1992,0.2055,0.2047,0.2074,0.2279,0.2403,0.2086,0.2064,0.1932,0.2076,0.1856,0.2583,0.2568,0.2606,0.272,0.2586,0,0,0,0,0]},{"header":{"parameterUnit":"m.s-1","parameterCategory":2,"la1":30.2991,"la2":30.254,"lo1":-89.0895,"lo2":-89.0444,"dy":0.0017,"dx":0.0017,"nx":28,"ny":28,"refTime":"2024-04-30T03:00:00:Z","depth":"2","parameterNumber":3,"parameterNumberName":"V-component_of_CURRENTS"},"data":[0,0,0,0,0,0,0,0,0,0,0,0,0,0,0,0,0,0,0,0,0,0,0,0,0,0,0,0,0,0,0,0,0,0,0,0,0,0,0,0,0,0,0,0,0,0,0,0,0,0,0,0,0,0,0,0,0,0,-0.0085,-0.0086,0,-0.0137,-0.0138,-0.0139,-0.0199,-0.02,-0.0201,-0.0202,-0.0249,-0.0249,-0.025,0,0,0,0,0,0,0,0,0,0,0,0,0,-0.0058,-0.0059,-0.0085,-0.0086,-0.0086,-0.0137,-0.0138,-0.0139,-0.0199,-0.02,-0.0201,-0.0202,-0.0249,-0.0249,-0.025,0,0,0,0,0,0,0,0,0,0,0,0,0,-0.0088,-0.0059,-0.0085,-0.0121,-0.0125,-0.0137,-0.0138,-0.0139,-0.0199,-0.02,-0.0201,-0.0203,-0.0248,-0.0249,-0.025,-0.0232,0,0,-0.0252,-0.0253,0,0,0,0,0,0,0,0,-0.0086,-0.0089,-0.0116,-0.0119,-0.0123,-0.0162,-0.0146,-0.0169,-0.0199,-0.0173,-0.0202,-0.0203,-0.0217,-0.0221,-0.023,-0.0234,-0.0236,-0.0252,-0.0253,-0.0253,-0.0253,0,0,0,0,0,0,0,-0.0084,-0.0087,-0.0108,-0.0116,-0.012,-0.0142,-0.0147,-0.0151,-0.0189,-0.0175,-0.0179,-0.0182,-0.022,-0.0229,-0.0232,-0.0237,-0.0252,-0.0253,-0.0254,-0.0254,-0.0259,-0.0259,0,0,0,0,0,0,-0.0072,-0.0085,-0.0106,-0.0109,-0.0105,-0.0141,-0.0147,-0.0149,-0.0189,-0.0196,-0.0181,-0.0185,-0.0227,-0.0231,-0.0234,-0.0224,-0.0253,-0.0254,-0.0254,-0.026,-0.0259,-0.0259,0,0,0,0,0,0,-0.0071,-0.0073,-0.0104,-0.0097,-0.0102,-0.014,-0.0142,-0.015,-0.0164,-0.0193,-0.0201,-0.0187,-0.0228,-0.0232,-0.0238,-0.0226,-0.0254,-0.0255,-0.026,-0.0259,-0.0259,-0.0199,0,0,0,0,0,0,-0.007,-0.0072,-0.007,-0.0096,-0.0102,-0.01,-0.0141,-0.015,-0.0162,-0.0168,-0.0201,-0.0206,-0.023,-0.0236,-0.0239,-0.0228,-0.0256,-0.026,-0.026,-0.0259,-0.0201,-0.0196,-0.0192,0,0,0,0,0,-0.0069,-0.0052,-0.007,-0.0072,-0.0098,-0.0099,-0.0103,-0.0136,-0.0161,-0.0156,-0.0185,-0.0206,-0.0235,-0.0236,-0.0239,-0.0228,-0.0261,-0.026,-0.0259,-0.0203,-0.0197,-0.0192,0,0,0,0,0,0,-0.003,-0.0057,-0.0077,-0.0069,-0.008,-0.0108,-0.0103,-0.013,-0.015,-0.0155,-0.0195,-0.0201,-0.0206,-0.0222,-0.0224,-0.023,-0.0253,-0.0253,-0.0209,-0.0204,-0.02,-0.0182,-0.0256,0,0,0,0,0,-0.0022,-0.0024,-0.0047,-0.0039,-0.0041,-0.0073,-0.008,-0.0099,-0.0119,-0.013,-0.016,-0.0187,-0.0203,-0.0208,-0.0225,-0.0218,-0.0239,-0.0216,-0.0211,-0.0207,-0.0196,-0.022,-0.0216,-0.0256,-0.0256,-0.0256,0,0,-0.0007,-0.0019,-0.0022,-0.0032,-0.0045,-0.0029,-0.008,-0.0077,-0.0067,-0.0129,-0.013,-0.017,-0.0199,-0.02,-0.0203,-0.0212,-0.0207,-0.0206,-0.0202,-0.0193,-0.0219,-0.0215,-0.0211,-0.0256,-0.0256,-0.0256,0,0,0.0038,0.0016,0.0033,0.003,0.0021,0.0007,0.001,-0.0017,-0.0033,-0.0036,-0.0086,-0.0116,-0.0136,-0.0161,-0.0173,-0.0149,-0.0185,-0.0162,-0.0118,-0.0141,-0.0138,-0.0135,-0.0156,-0.0155,-0.0156,-0.0155,-0.0155,0,0.006,0.0076,0.0041,0.0065,0.0074,0.0028,0.0062,0.0046,0.0016,0.0006,-0.0024,-0.0085,-0.0113,-0.0121,-0.0122,-0.0136,-0.0159,-0.0135,-0.0134,-0.0132,-0.013,-0.0152,-0.0153,-0.0152,-0.0153,-0.0153,-0.0153,0,0.0124,0.0133,0.015,0.016,0.0166,0.0189,0.0169,0.0163,0.0131,0.0099,0.0069,0.0013,-0.0023,-0.0045,-0.0074,-0.0081,-0.0104,-0.0128,-0.0145,-0.0123,-0.0147,-0.0149,-0.0148,-0.0149,-0.015,-0.0151,0,0,0.019,0.0193,0.0199,0.0215,0.0219,0.0234,0.0256,0.0256,0.0265,0.0204,0.0204,0.0142,0.0081,0.0063,0.0006,-0.0023,-0.0037,-0.0068,-0.0071,-0.0081,-0.009,-0.011,-0.0114,-0.0066,-0.0066,-0.0066,-0.0111,0,0.0255,0.031,0.0297,0.0353,0.0382,0.0356,0.0384,0.0372,0.0342,0.0327,0.0244,0.0216,0.0133,0.0109,0.0067,-0.0012,-0.0038,-0.0022,-0.0115,-0.0118,-0.0133,-0.0115,-0.009,-0.0129,-0.0113,-0.0113,-0.0113,0,0.0332,0.0355,0.042,0.0444,0.0457,0.0485,0.0514,0.0527,0.0491,0.0466,0.0405,0.033,0.0266,0.0198,0.0078,0.0089,0.0012,-0.0055,-0.0058,-0.0097,-0.014,-0.015,-0.0132,-0.0116,-0.0116,-0.0116,-0.0116,0,0.0403,0.0444,0.0497,0.0509,0.0534,0.056,0.0572,0.0563,0.0583,0.0542,0.0541,0.0438,0.0393,0.0278,0.0125,0.0104,-0.0002,-0.0043,-0.0133,-0.0135,-0.014,-0.0143,-0.0109,-0.0109,-0.0109,-0.0109,-0.0109,0,0.0484,0.0525,0.0531,0.0562,0.0627,0.0622,0.0682,0.0678,0.0685,0.0715,0.0607,0.0605,0.0409,0.0312,0.0171,0.0017,0.0035,-0.0117,-0.0145,-0.0119,-0.012,-0.0132,-0.0134,-0.0111,-0.011,-0.011,-0.011,0,0.0554,0.0561,0.0616,0.0646,0.066,0.0704,0.0753,0.0794,0.079,0.083,0.0822,0.0729,0.0599,0.0407,0.0224,0.0086,-0.006,-0.0115,-0.0074,-0.0096,-0.019,-0.0189,-0.0219,-0.022,-0.0221,-0.0221,-0.0222,0,0.0595,0.0631,0.0672,0.0705,0.072,0.0777,0.0824,0.0844,0.089,0.091,0.0939,0.083,0.0766,0.0485,0.0225,-0.0014,-0.0053,-0.0149,-0.0186,-0.0175,-0.02,-0.0197,-0.0194,-0.017,-0.017,-0.017,-0.017,0,0.0664,0.0673,0.0709,0.0774,0.0826,0.089,0.0953,0.1011,0.1046,0.1083,0.111,0.1066,0.0802,0.0546,0.0213,0.0055,-0.0114,-0.0159,-0.0149,-0.0147,-0.0133,-0.0156,-0.0155,-0.0171,-0.0171,-0.0171,-0.0171,-0.0171,0.0704,0.0736,0.0774,0.0839,0.0903,0.0988,0.1052,0.1123,0.1208,0.1269,0.1234,0.1183,0.0902,0.0473,0.0179,-0.0127,-0.0113,-0.0223,-0.0221,-0.0219,-0.0206,-0.0194,-0.0241,-0.0242,-0.0242,-0.0242,-0.0242,0,0.0741,0.0774,0.0835,0.0908,0.0984,0.1012,0.1129,0.1194,0.1293,0.1351,0.1365,0.1119,0.0839,0.0522,0.0066,-0.0206,-0.0223,-0.0289,-0.0255,-0.0252,-0.0249,-0.0237,-0.0282,-0.0283,-0.0284,-0.0285,0,0,0.0757,0.0813,0.0839,0.0956,0.1017,0.1123,0.1193,0.1289,0.1356,0.1403,0.1387,0.1331,0.0951,0.0612,0.0237,-0.0029,-0.0075,-0.0074,-0.001,0.0078,0.0084,-0.0176,-0.0148,0,0,0,0,0]}],[{"header":{"parameterUnit":"m.s-1","parameterCategory":2,"la1":30.2991,"la2":30.254,"lo1":-89.0895,"lo2":-89.0444,"dy":0.0017,"dx":0.0017,"nx":28,"ny":28,"refTime":"2024-04-30T03:00:00:Z","depth":"4","parameterNumber":2,"parameterNumberName":"U-component_of_CURRENTS"},"data":[0,0,0,0,0,0,0,0,0,0,0,0,0,0,0,0,0,0,0,0,0,0,0,0,0,0,0,0,0,0,0,0,0,0,0,0,0,0,0,0,0,0,0,0,0,0,0,0,0,0,0,0,0,0,0,0,0,0,0.136,0.136,0,0.1398,0.1399,0.1399,0.1461,0.1462,0.1462,0.1463,0.1568,0.157,0.1572,0,0,0,0,0,0,0,0,0,0,0,0,0,0.1363,0.1363,0.136,0.136,0.136,0.1398,0.1399,0.14,0.1461,0.1462,0.1463,0.1464,0.1567,0.1569,0.1572,0,0,0,0,0,0,0,0,0,0,0,0,0,0.1381,0.1363,0.136,0.1393,0.1396,0.1398,0.1399,0.14,0.146,0.1462,0.1463,0.1464,0.1566,0.1569,0.1572,0.1567,0,0,0.1582,0.1583,0,0,0,0,0,0,0,0,0.138,0.1381,0.1388,0.139,0.1394,0.1423,0.1438,0.1458,0.146,0.144,0.1463,0.1465,0.1522,0.1529,0.1538,0.1572,0.1577,0.1582,0.1584,0.1585,0.1586,0,0,0,0,0,0,0,0.1378,0.138,0.1379,0.1388,0.1391,0.1413,0.1417,0.1442,0.1478,0.1442,0.1445,0.1443,0.1525,0.1534,0.1541,0.1578,0.1582,0.1585,0.1586,0.1588,0.1714,0.1715,0,0,0,0,0,0,0.1364,0.1378,0.1377,0.1379,0.1386,0.1412,0.1416,0.1415,0.1476,0.1485,0.1442,0.1446,0.1529,0.1537,0.1545,0.1655,0.1585,0.1588,0.159,0.1712,0.1714,0.1716,0,0,0,0,0,0,0.1364,0.1363,0.1376,0.1377,0.138,0.141,0.1408,0.1415,0.1457,0.1475,0.1487,0.1481,0.153,0.154,0.1609,0.1656,0.1589,0.1592,0.171,0.1713,0.1715,0.1805,0,0,0,0,0,0,0.1364,0.1363,0.1371,0.1376,0.1379,0.14,0.1407,0.1415,0.145,0.1457,0.1511,0.152,0.1532,0.1605,0.1612,0.1659,0.1594,0.1709,0.1712,0.1714,0.18,0.181,0.1818,0,0,0,0,0,0.1364,0.1367,0.1371,0.1372,0.1384,0.1401,0.1406,0.1433,0.1451,0.1475,0.1523,0.152,0.1627,0.1609,0.1617,0.1666,0.1707,0.1711,0.1714,0.1796,0.1808,0.1818,0,0,0,0,0,0,0.1377,0.1373,0.1378,0.1382,0.1399,0.141,0.1439,0.1449,0.1503,0.1524,0.1546,0.1558,0.1636,0.1632,0.1611,0.1707,0.1664,0.1669,0.1723,0.1735,0.1744,0.1715,0.1597,0,0,0,0,0,0.1378,0.1387,0.1386,0.1398,0.141,0.143,0.1446,0.1461,0.1497,0.1523,0.1556,0.1598,0.1648,0.1679,0.1712,0.1765,0.1763,0.1798,0.1807,0.1815,0.1796,0.1845,0.1857,0.1727,0.1727,0.1727,0,0,0.138,0.1388,0.1389,0.1402,0.1427,0.1443,0.1447,0.1481,0.151,0.1525,0.1597,0.1636,0.167,0.1739,0.1771,0.1749,0.1857,0.182,0.1827,0.1802,0.185,0.1863,0.1874,0.1729,0.1729,0.1728,0,0,0.1397,0.1409,0.1422,0.1439,0.1471,0.1479,0.1494,0.152,0.1558,0.1615,0.1644,0.1707,0.1771,0.1806,0.1832,0.1905,0.1906,0.1924,0.1952,0.2002,0.2013,0.2022,0.2061,0.2073,0.1928,0.1928,0.1928,0,0.1401,0.1419,0.1432,0.1456,0.1476,0.1497,0.1521,0.1554,0.1601,0.1636,0.1652,0.1762,0.1798,0.188,0.1912,0.1927,0.1951,0.1914,0.2015,0.2024,0.2032,0.2069,0.2081,0.1933,0.1932,0.1932,0.1931,0,0.1421,0.1446,0.1467,0.1499,0.1522,0.1552,0.1582,0.1621,0.1665,0.1694,0.1791,0.1844,0.1908,0.1937,0.1954,0.2036,0.2035,0.2025,0.1987,0.2051,0.2086,0.2097,0.194,0.1938,0.1937,0.1935,0,0,0.1408,0.1462,0.1478,0.1504,0.155,0.157,0.1624,0.1673,0.1726,0.1782,0.1855,0.1944,0.1977,0.2006,0.2043,0.208,0.2179,0.2083,0.2084,0.2122,0.2295,0.2163,0.2162,0.2201,0.2203,0.2204,0.2305,0,0.1427,0.1472,0.1501,0.1555,0.1578,0.1617,0.167,0.1721,0.178,0.1855,0.1918,0.201,0.2006,0.2069,0.2106,0.2166,0.2209,0.2152,0.2224,0.2225,0.2101,0.2169,0.221,0.2313,0.2316,0.2318,0.2319,0,0.1437,0.1471,0.1519,0.159,0.161,0.165,0.1737,0.1789,0.1883,0.1939,0.2014,0.2068,0.2156,0.2143,0.225,0.2222,0.2261,0.2286,0.2291,0.2132,0.2112,0.223,0.2339,0.2337,0.2336,0.2334,0.2333,0,0.1416,0.1487,0.153,0.1551,0.1627,0.1678,0.1734,0.1823,0.1879,0.2004,0.2057,0.2156,0.2232,0.2284,0.2343,0.2319,0.2441,0.2417,0.2327,0.2319,0.2368,0.2356,0.248,0.248,0.248,0.2479,0.2479,0,0.1405,0.1451,0.1533,0.1556,0.163,0.1695,0.1783,0.1852,0.1956,0.2022,0.2114,0.2172,0.2273,0.2347,0.2379,0.2386,0.248,0.233,0.2334,0.2407,0.2398,0.2378,0.2365,0.2483,0.2482,0.2482,0.2481,0,0.1369,0.142,0.1478,0.1579,0.1616,0.1678,0.1795,0.1849,0.1964,0.2051,0.2099,0.2217,0.2314,0.239,0.2492,0.2426,0.2455,0.2437,0.2524,0.2532,0.2291,0.2281,0.2332,0.2328,0.2325,0.2322,0.232,0,0.1347,0.137,0.1483,0.1519,0.1574,0.1666,0.172,0.1843,0.1893,0.2054,0.2084,0.2223,0.2289,0.2318,0.2409,0.2462,0.2434,0.2424,0.2323,0.2275,0.2276,0.2271,0.2266,0.2314,0.2313,0.2313,0.2312,0,0.1308,0.1363,0.1409,0.1476,0.1544,0.1598,0.1692,0.1711,0.1849,0.1967,0.2023,0.2072,0.2173,0.2237,0.2302,0.2328,0.241,0.2389,0.2394,0.2299,0.2255,0.2257,0.2256,0.23,0.2302,0.2303,0.2304,0,0.129,0.1307,0.1367,0.1416,0.1488,0.1507,0.1564,0.1621,0.1683,0.1855,0.1875,0.2022,0.2152,0.2171,0.2231,0.2249,0.2205,0.2113,0.2132,0.2146,0.2037,0.195,0.1907,0,0,0,0,0,0.1257,0.1254,0.1294,0.1332,0.1396,0.1435,0.1529,0.1584,0.1712,0.1709,0.1784,0.1871,0.1942,0.202,0.2004,0.2157,0.2219,0.2126,0.2124,0.2237,0.225,0.2138,0,0,0,0,0,0,0.1231,0.1263,0.1261,0.1246,0.1257,0.1309,0.1363,0.145,0.1452,0.1595,0.165,0.176,0.1869,0.1945,0.1971,0.1996,0.1955,0.2225,0.222,0.223,0.2242,0.2252,0.2141,0,0,0,0,0]},{"header":{"parameterUnit":"m.s-1","parameterCategory":2,"la1":30.2991,"la2":30.254,"lo1":-89.0895,"lo2":-89.0444,"dy":0.0017,"dx":0.0017,"nx":28,"ny":28,"refTime":"2024-04-30T03:00:00:Z","depth":"4","parameterNumber":3,"parameterNumberName":"V-component_of_CURRENTS"},"data":[0,0,0,0,0,0,0,0,0,0,0,0,0,0,0,0,0,0,0,0,0,0,0,0,0,0,0,0,0,0,0,0,0,0,0,0,0,0,0,0,0,0,0,0,0,0,0,0,0,0,0,0,0,0,0,0,0,0,0.0085,0.0085,0,0.0047,0.0046,0.0046,-0.0011,-0.0011,-0.0012,-0.0013,-0.0072,-0.0073,-0.0073,0,0,0,0,0,0,0,0,0,0,0,0,0,0.007,0.0071,0.0085,0.0085,0.0085,0.0047,0.0046,0.0046,-0.001,-0.0011,-0.0012,-0.0013,-0.0071,-0.0072,-0.0073,0,0,0,0,0,0,0,0,0,0,0,0,0,0.0056,0.0071,0.0085,0.0054,0.0052,0.0047,0.0046,0.0045,-0.001,-0.0011,-0.0012,-0.0013,-0.0071,-0.0072,-0.0074,-0.0061,0,0,-0.0078,-0.0078,0,0,0,0,0,0,0,0,0.0057,0.0057,0.0059,0.0057,0.0053,0.0025,0.002,0.001,-0.001,0.001,-0.0013,-0.0014,-0.0039,-0.0043,-0.0051,-0.0063,-0.0066,-0.0078,-0.0079,-0.0079,-0.008,0,0,0,0,0,0,0,0.0058,0.0058,0.0067,0.0059,0.0056,0.0029,0.0026,0.0017,-0.001,0.0008,0.0005,0.0006,-0.0041,-0.005,-0.0053,-0.0067,-0.0078,-0.0079,-0.008,-0.008,-0.0082,-0.0081,0,0,0,0,0,0,0.0072,0.0059,0.0068,0.0066,0.0056,0.0031,0.0027,0.0032,-0.001,-0.0017,0.0007,0.0003,-0.0047,-0.0052,-0.0056,-0.0044,-0.0079,-0.0081,-0.0081,-0.0082,-0.0081,-0.0081,0,0,0,0,0,0,0.0072,0.0074,0.007,0.0064,0.0062,0.0033,0.0039,0.0032,0.0023,-0.001,-0.0018,0.0004,-0.0048,-0.0054,-0.0063,-0.0046,-0.0081,-0.0082,-0.0083,-0.0082,-0.0081,-0.0019,0,0,0,0,0,0,0.0072,0.0074,0.0083,0.0065,0.0063,0.0076,0.004,0.0032,0.0026,0.0021,-0.0015,-0.0022,-0.0049,-0.0061,-0.0064,-0.0049,-0.0083,-0.0084,-0.0083,-0.0081,-0.0022,-0.0016,-0.001,0,0,0,0,0,0.0072,0.0096,0.0084,0.0085,0.0076,0.0077,0.0074,0.0047,0.0028,0.0032,0.0003,-0.0021,-0.0054,-0.0061,-0.0065,-0.005,-0.0085,-0.0083,-0.0081,-0.0025,-0.0017,-0.0011,0,0,0,0,0,0,0.0102,0.0092,0.0078,0.01,0.0091,0.0069,0.0074,0.0055,0.0035,0.0031,-0.001,-0.0018,-0.0022,-0.0041,-0.0048,-0.0046,-0.0073,-0.0072,-0.0028,-0.0021,-0.0016,0.0004,-0.0085,0,0,0,0,0,0.0112,0.0122,0.0109,0.0126,0.0124,0.0099,0.0096,0.0081,0.0063,0.0052,0.0025,-0.0,-0.0016,-0.0023,-0.0041,-0.0035,-0.0062,-0.0028,-0.0023,-0.0018,-0.0004,-0.003,-0.0026,-0.0075,-0.0075,-0.0075,0,0,0.0131,0.0126,0.0133,0.0132,0.0121,0.0131,0.0093,0.01,0.0109,0.0052,0.0051,0.0019,-0.0011,-0.0011,-0.0013,-0.0026,-0.0019,-0.0015,-0.0011,0.0,-0.0028,-0.0023,-0.0019,-0.0074,-0.0074,-0.0074,0,0,0.0172,0.0167,0.0184,0.0182,0.0175,0.0163,0.0169,0.015,0.0139,0.0139,0.0097,0.0076,0.0055,0.0033,0.0021,0.0051,0.001,0.0046,0.0094,0.0068,0.0072,0.0075,0.004,0.0039,0.0051,0.0051,0.0051,0,0.0195,0.0212,0.0191,0.0206,0.0214,0.0182,0.0206,0.0197,0.0177,0.0176,0.0149,0.011,0.0078,0.0078,0.0082,0.0065,0.004,0.0069,0.0076,0.0078,0.008,0.0043,0.0042,0.0054,0.0054,0.0054,0.0053,0,0.0241,0.0256,0.027,0.0275,0.0281,0.0301,0.0288,0.029,0.0271,0.0253,0.0244,0.0195,0.0172,0.0157,0.0128,0.0132,0.0105,0.0083,0.0059,0.0089,0.0048,0.0045,0.0059,0.0058,0.0057,0.0056,0,0,0.0294,0.0301,0.0307,0.0319,0.0322,0.0335,0.0356,0.0364,0.0378,0.0345,0.0355,0.0313,0.0276,0.026,0.0216,0.0193,0.0174,0.0151,0.0148,0.0117,0.0111,0.008,0.0073,0.0152,0.0152,0.0153,0.0073,0,0.0337,0.0378,0.0372,0.0418,0.0438,0.0426,0.045,0.0452,0.0439,0.0438,0.0389,0.0377,0.032,0.0306,0.0274,0.0198,0.0172,0.0197,0.0085,0.0082,0.0052,0.0071,0.0153,0.0071,0.007,0.0069,0.0069,0,0.0383,0.0403,0.0455,0.0485,0.0495,0.0521,0.0553,0.0572,0.0563,0.055,0.0525,0.0476,0.0435,0.0382,0.0277,0.0295,0.0216,0.0153,0.0148,0.01,0.0047,0.0035,0.0064,0.0064,0.0065,0.0065,0.0065,0,0.0424,0.0464,0.0509,0.0521,0.055,0.0578,0.0598,0.0606,0.0629,0.0621,0.0621,0.0561,0.0525,0.0431,0.029,0.0286,0.0166,0.0141,0.004,0.0036,0.0059,0.0056,0.0078,0.0078,0.0078,0.0078,0.0078,0,0.0469,0.0507,0.0533,0.0559,0.0618,0.0626,0.0685,0.0695,0.0712,0.0736,0.068,0.0669,0.0535,0.0442,0.032,0.0168,0.0185,0.0055,0.0019,0.0085,0.0087,0.0056,0.0054,0.0075,0.0076,0.0076,0.0077,0,0.0502,0.0523,0.0574,0.0617,0.0638,0.0681,0.0742,0.0779,0.0789,0.0818,0.0818,0.0747,0.062,0.0472,0.0305,0.0203,0.0064,0.0006,0.0084,0.0052,-0.0057,-0.0054,-0.0104,-0.0105,-0.0107,-0.0108,-0.0109,0,0.0522,0.0552,0.0614,0.0649,0.0672,0.0735,0.0782,0.0817,0.0851,0.0855,0.0866,0.0766,0.0691,0.0439,0.0282,0.0054,0.0016,-0.0051,-0.0046,-0.0042,-0.0072,-0.0067,-0.0063,-0.0111,-0.0111,-0.0112,-0.0112,0,0.055,0.0574,0.0611,0.068,0.0738,0.0802,0.0862,0.0892,0.0927,0.0939,0.0894,0.077,0.0623,0.0429,0.0249,0.0086,-0.0001,-0.0066,-0.0064,-0.006,-0.0052,-0.0079,-0.0073,-0.0117,-0.0116,-0.0116,-0.0116,0,0.0565,0.059,0.0637,0.0698,0.0773,0.0835,0.0872,0.0902,0.0935,0.0937,0.0916,0.077,0.069,0.0444,0.028,0.0114,0.007,0.0023,0.0019,0.0023,0.0078,0.0109,0.0071,0,0,0,0,0,0.0568,0.0592,0.0649,0.0713,0.0789,0.0832,0.091,0.094,0.0973,0.0945,0.0932,0.0794,0.0552,0.0454,0.0282,0.024,0.0035,0.0032,-0.0023,-0.0143,-0.0138,-0.0097,0,0,0,0,0,0,0.0566,0.0615,0.0638,0.0712,0.0759,0.0842,0.0894,0.0921,0.0903,0.0913,0.0787,0.0744,0.0507,0.0642,0.0273,0.0226,0.0166,-0.0073,-0.0077,-0.0146,-0.0141,-0.0137,-0.0093,0,0,0,0,0]}]]